Weather History for Farmington, MO

Change the Weather History Date:

Friday, February 14, 2014

  Actual Average Record
Temperature  
Mean Temperature 31 °F -  
Max Temperature 41 °F 45 °F 66 °F (2005)
Min Temperature 19 °F 28 °F 14 °F (2007)
Degree Days  
Heating Degree Days 34    
Moisture  
Dew Point 26 °F    
Average Humidity 85    
Maximum Humidity 100    
Minimum Humidity 70    
Precipitation  
Precipitation 0.15 in - - ()
Sea Level Pressure  
Sea Level Pressure 29.80 in    
Wind  
Wind Speed 7 mph (West)    
Max Wind Speed 18 mph    
Max Gust Speed 28 mph    
Visibility 8 miles    
Events      
Averages and records for this station are not official NWS values.
T = Trace of Precipitation, MM = Missing Value Source: NWS Daily Summary

Daily Weather History Graph

Daily Weather History Graph

Search for Another Location

Airport:

Trip Planner

Search our weather history database for the weather conditions in past years. The results will help you decide how hot, cold, wet, or windy it might be!

Date:

Astronomy

Feb. 14, 2014 Rise Set
Actual Time 6:52 AM CST 5:39 PM CST
Civil Twilight 6:25 AM CST 6:06 PM CST
Nautical Twilight 5:54 AM CST 6:37 PM CST
Astronomical Twilight 5:24 AM CST 7:07 PM CST
Moon 5:42 PM CST (2/14) 6:20 AM CST (2/14)
Length of Visible Light 11h 41m
Length of Day
10h 47m
Full, 100% of the Moon is Illuminated
Feb 14
Full
Feb 14
Full
Feb 22
Last Quarter
Mar 1
New
Mar 8
First Quarter

Hourly Weather History & Observations

Time (CST) Temp. Windchill Dew Point Humidity Pressure Visibility Wind Dir Wind Speed Gust Speed Precip Events Conditions
12:15 AM 39.2 °F 35.9 °F 30.2 °F 70% 29.79 in 10.0 mi West 4.6 mph - N/A   Clear
12:35 AM 39.2 °F 37.0 °F 30.2 °F 70% 29.78 in 10.0 mi WSW 3.5 mph - N/A   Clear
12:55 AM 35.6 °F 30.7 °F 30.2 °F 81% 29.78 in 10.0 mi South 5.8 mph - N/A   Clear
1:15 AM 37.4 °F 33.8 °F 30.2 °F 75% 29.78 in 10.0 mi SW 4.6 mph - N/A   Clear
1:35 AM 37.4 °F 33.8 °F 30.2 °F 75% 29.77 in 10.0 mi SW 4.6 mph - N/A   Clear
1:55 AM 37.4 °F 34.9 °F 30.2 °F 75% 29.77 in 10.0 mi WSW 3.5 mph - N/A   Clear
2:15 AM 37.4 °F 33.8 °F 32.0 °F 81% 29.76 in 10.0 mi SW 4.6 mph - N/A   Clear
2:35 AM 30.2 °F - 26.6 °F 86% 29.76 in 8.0 mi Calm Calm - N/A   Clear
2:55 AM 30.2 °F 23.4 °F 28.4 °F 93% 29.75 in 7.0 mi South 6.9 mph - N/A   Clear
3:15 AM 28.4 °F 22.2 °F 28.4 °F 100% 29.76 in 9.0 mi SSE 5.8 mph - N/A   Clear
3:35 AM 30.2 °F - 26.6 °F 86% 29.77 in 8.0 mi Calm Calm - N/A   Mostly Cloudy
3:55 AM 32.0 °F 27.5 °F 30.2 °F 93% 29.76 in 9.0 mi South 4.6 mph - N/A   Partly Cloudy
4:15 AM 32.0 °F 27.5 °F 28.4 °F 87% 29.76 in 10.0 mi South 4.6 mph - N/A   Clear
4:35 AM 32.0 °F - 28.4 °F 87% 29.74 in 9.0 mi Calm Calm - N/A   Clear
4:55 AM 26.6 °F - 24.8 °F 93% 29.75 in 5.0 mi Calm Calm - N/A   Scattered Clouds
5:15 AM 28.4 °F 24.6 °F 28.4 °F 100% 29.73 in 7.0 mi SE 3.5 mph - N/A   Overcast
5:35 AM 30.2 °F - 28.4 °F 93% 29.73 in 7.0 mi Calm Calm - N/A   Mostly Cloudy
5:55 AM 30.2 °F - 28.4 °F 93% 29.75 in 7.0 mi Calm Calm - N/A   Mostly Cloudy
6:15 AM 30.2 °F - 28.4 °F 93% 29.73 in 7.0 mi Calm Calm - N/A   Overcast
6:35 AM 30.2 °F - 28.4 °F 93% 29.73 in 8.0 mi Calm Calm - N/A   Mostly Cloudy
6:55 AM 33.8 °F 29.6 °F 30.2 °F 87% 29.70 in 10.0 mi SE 4.6 mph - N/A   Overcast
7:15 AM 33.8 °F 27.0 °F 30.2 °F 87% 29.70 in 7.0 mi SE 8.1 mph - N/A   Overcast
7:35 AM 33.8 °F 26.4 °F 30.2 °F 87% 29.71 in 8.0 mi SW 9.2 mph - N/A   Scattered Clouds
7:55 AM 35.6 °F 32.8 °F 30.2 °F 81% 29.71 in 9.0 mi ESE 3.5 mph - N/A   Mostly Cloudy
8:15 AM 35.6 °F 28.6 °F 30.2 °F 81% 29.69 in 8.0 mi South 9.2 mph - N/A   Overcast
8:35 AM 35.6 °F 28.0 °F 30.2 °F 81% 29.67 in 9.0 mi South 10.4 mph - N/A   Overcast
8:55 AM 35.6 °F 27.1 °F 30.2 °F 81% 29.65 in 9.0 mi South 12.7 mph - N/A   Overcast
9:15 AM 35.6 °F 26.2 °F 30.2 °F 81% 29.65 in 9.0 mi South 15.0 mph - N/A   Overcast
9:35 AM 35.6 °F 29.9 °F 30.2 °F 81% 29.65 in 7.0 mi SSW 6.9 mph - 0.02 in   Overcast
9:55 AM 35.6 °F 31.7 °F 32.0 °F 87% 29.66 in 5.0 mi WSW 4.6 mph - 0.05 in   Overcast
10:15 AM 37.4 °F 30.8 °F 33.8 °F 87% 29.68 in 4.0 mi SSW 9.2 mph - 0.03 in   Overcast
10:35 AM 37.4 °F 33.8 °F 35.6 °F 93% 29.66 in 7.0 mi SW 4.6 mph - 0.04 in   Overcast
10:55 AM 37.4 °F 29.8 °F 35.6 °F 93% 29.65 in 10.0 mi South 11.5 mph - 0.07 in   Overcast
11:15 AM 39.2 °F 37.0 °F 35.6 °F 87% 29.66 in 7.0 mi West 3.5 mph - 0.03 in   Overcast
11:35 AM 39.2 °F 35.0 °F 37.4 °F 93% 29.66 in 9.0 mi SW 5.8 mph - 0.03 in   Overcast
11:55 AM 39.2 °F 35.0 °F 37.4 °F 93% 29.65 in 9.0 mi South 5.8 mph - 0.03 in   Overcast
12:15 PM 39.2 °F 33.6 °F 39.2 °F 100% 29.66 in 10.0 mi WSW 8.1 mph - N/A   Overcast
12:35 PM 41.0 °F 35.8 °F 37.4 °F 87% 29.65 in 10.0 mi WNW 8.1 mph - N/A   Overcast
12:55 PM 41.0 °F 34.7 °F 37.4 °F 87% 29.65 in 9.0 mi NW 10.4 mph 16.1 mph N/A   Overcast
1:15 PM 39.2 °F 32.0 °F 35.6 °F 87% 29.65 in 7.0 mi NW 11.5 mph 21.9 mph N/A   Overcast
1:35 PM 39.2 °F 31.2 °F 35.6 °F 87% 29.66 in 7.0 mi NW 13.8 mph - N/A   Overcast
1:55 PM 33.8 °F 22.8 °F 28.4 °F 81% 29.69 in 0.5 mi NNW 18.4 mph 25.3 mph N/A   Overcast
2:15 PM 30.2 °F 18.1 °F 28.4 °F 93% 29.70 in 1.0 mi NNW 18.4 mph 25.3 mph N/A   Overcast
2:35 PM 28.4 °F 15.8 °F 26.6 °F 93% 29.74 in 2.5 mi NNW 18.4 mph 25.3 mph N/A   Overcast
2:55 PM 28.4 °F 16.6 °F 26.6 °F 93% 29.76 in 3.0 mi NNW 16.1 mph 24.2 mph N/A   Overcast
3:15 PM 26.6 °F 15.2 °F 24.8 °F 93% 29.78 in 2.5 mi NNW 13.8 mph 25.3 mph N/A   Overcast
3:35 PM 26.6 °F 14.7 °F 24.8 °F 93% 29.79 in 3.0 mi NW 15.0 mph 20.7 mph N/A   Overcast
3:55 PM 26.6 °F 16.2 °F 23.0 °F 86% 29.81 in 3.0 mi NW 11.5 mph 23.0 mph N/A   Overcast
4:15 PM 26.6 °F 14.7 °F 23.0 °F 86% 29.83 in 5.0 mi NNW 15.0 mph 23.0 mph N/A   Overcast
4:35 PM 24.8 °F 12.9 °F 23.0 °F 93% 29.85 in 5.0 mi NNW 13.8 mph 27.6 mph N/A   Overcast
4:55 PM 24.8 °F 12.9 °F 21.2 °F 86% 29.86 in 5.0 mi NNW 13.8 mph 19.6 mph N/A   Overcast
5:15 PM 24.8 °F 13.4 °F 21.2 °F 86% 29.87 in 4.0 mi NNW 12.7 mph 19.6 mph N/A   Overcast
5:35 PM 24.8 °F 13.4 °F 21.2 °F 86% 29.89 in 9.0 mi NW 12.7 mph 19.6 mph N/A   Overcast
5:55 PM 24.8 °F 12.9 °F 21.2 °F 86% 29.91 in 10.0 mi NW 13.8 mph - N/A   Overcast
6:15 PM 24.8 °F 12.4 °F 21.2 °F 86% 29.93 in 10.0 mi NW 15.0 mph 19.6 mph N/A   Overcast
6:35 PM 24.8 °F 14.6 °F 19.4 °F 80% 29.93 in 10.0 mi NNW 10.4 mph 26.5 mph N/A   Overcast
6:55 PM 24.8 °F 11.9 °F 19.4 °F 80% 29.95 in 10.0 mi NW 16.1 mph 25.3 mph N/A   Overcast
7:15 PM 24.8 °F 12.4 °F 19.4 °F 80% 29.96 in 10.0 mi NNW 15.0 mph 26.5 mph N/A   Overcast
7:35 PM 24.8 °F 12.9 °F 19.4 °F 80% 29.97 in 10.0 mi NW 13.8 mph 21.9 mph N/A   Overcast
7:55 PM 23.0 °F 10.1 °F 17.6 °F 80% 29.99 in 10.0 mi NNW 15.0 mph 24.2 mph N/A   Mostly Cloudy
8:15 PM 23.0 °F 10.1 °F 17.6 °F 80% 30.00 in 10.0 mi NNW 15.0 mph 19.6 mph N/A   Overcast
8:35 PM 23.0 °F 10.6 °F 15.8 °F 74% 30.00 in 10.0 mi NW 13.8 mph 17.3 mph N/A   Mostly Cloudy
8:55 PM 21.2 °F 8.9 °F 15.8 °F 80% 30.00 in 10.0 mi NW 12.7 mph 17.3 mph N/A   Scattered Clouds
9:15 PM 21.2 °F 10.1 °F 15.8 °F 80% 30.01 in 10.0 mi NW 10.4 mph - N/A   Scattered Clouds
9:35 PM 21.2 °F 10.1 °F 17.6 °F 86% 30.02 in 10.0 mi NW 10.4 mph - N/A   Mostly Cloudy
9:55 PM 21.2 °F 8.9 °F 15.8 °F 80% 30.02 in 10.0 mi NW 12.7 mph - N/A   Scattered Clouds
10:15 PM 21.2 °F 10.1 °F 15.8 °F 80% 30.03 in 10.0 mi NW 10.4 mph 16.1 mph N/A   Clear
10:35 PM 21.2 °F 8.9 °F 15.8 °F 80% 30.03 in 10.0 mi NW 12.7 mph 16.1 mph N/A   Clear
10:55 PM 21.2 °F 9.5 °F 15.8 °F 80% 30.04 in 10.0 mi NW 11.5 mph 16.1 mph N/A   Clear
11:15 PM 21.2 °F 8.9 °F 14.0 °F 74% 30.05 in 10.0 mi NW 12.7 mph - N/A   Clear
11:35 PM 21.2 °F 11.7 °F 14.0 °F 74% 30.06 in 10.0 mi NW 8.1 mph 20.7 mph N/A   Clear
11:55 PM 19.4 °F 8.6 °F 14.0 °F 80% 30.06 in 10.0 mi NW 9.2 mph - N/A   Clear